TREK21 ENBR-ENVA

Flight info

Callsign TREK21
Flight time 0h 47m
Altitude 31000
Route INTUM DCT NELSU
Aircraft C17/H-SDE1E3FGHIJ5KM1RTUWXYZ/LB1D1

Departure

Time 2026-04-30 19:07
Airport Bergen Airport, Flesland (ENBR)

Arrival

Time 2026-04-30 19:54
Airport Trondheim Airport, Værnes (ENVA)
Time Latitude Longitude Altitude Speed Heading
2026-04-30 18:45 60.28238 5.22656 151 ft 0 kts 210°
2026-04-30 19:00 60.28211 5.22610 150 ft 7 kts 238°
2026-04-30 19:00 60.28222 5.22526 150 ft 7 kts 330°
2026-04-30 19:00 60.28384 5.22459 157 ft 14 kts 350°
2026-04-30 19:01 60.28600 5.22388 161 ft 20 kts 350°
2026-04-30 19:01 60.28698 5.22355 160 ft 21 kts 351°
2026-04-30 19:02 60.29002 5.22252 158 ft 18 kts 350°
2026-04-30 19:02 60.29254 5.22167 159 ft 23 kts 351°
2026-04-30 19:03 60.29615 5.22047 145 ft 27 kts 351°
2026-04-30 19:03 60.29950 5.21934 152 ft 25 kts 350°
2026-04-30 19:04 60.30274 5.21825 163 ft 24 kts 351°
2026-04-30 19:04 60.30559 5.21729 175 ft 15 kts 351°
2026-04-30 19:05 60.30663 5.21559 179 ft 11 kts 261°
2026-04-30 19:05 60.30610 5.21390 180 ft 10 kts 170°
2026-04-30 19:06 60.30497 5.21428 171 ft 42 kts 171°
2026-04-30 19:06 60.29967 5.21605 158 ft 108 kts 171°
2026-04-30 19:06 60.28091 5.22185 705 ft 164 kts 171°
2026-04-30 19:07 60.25983 5.22985 1658 ft 152 kts 171°
2026-04-30 19:07 60.24888 5.23408 2070 ft 170 kts 170°
2026-04-30 19:08 60.22251 5.24460 3203 ft 209 kts 171°
2026-04-30 19:08 60.19210 5.25778 4507 ft 241 kts 171°
2026-04-30 19:08 60.17521 5.26551 5159 ft 257 kts 171°
2026-04-30 19:09 60.13810 5.27575 6468 ft 283 kts 181°
2026-04-30 19:09 60.11867 5.28724 7068 ft 307 kts 151°
2026-04-30 19:09 60.10238 5.31668 7692 ft 325 kts 134°
2026-04-30 19:10 60.09061 5.40644 8898 ft 361 kts 81°
2026-04-30 19:10 60.11831 5.48716 10488 ft 364 kts 28°
2026-04-30 19:11 60.14188 5.50327 11248 ft 358 kts
2026-04-30 19:11 60.18984 5.48663 12757 ft 351 kts 339°
2026-04-30 19:11 60.21340 5.47305 13546 ft 354 kts 340°
2026-04-30 19:12 60.23739 5.46085 14316 ft 357 kts 342°
2026-04-30 19:12 60.26173 5.45013 15027 ft 359 kts 342°
2026-04-30 19:12 60.28627 5.43869 15616 ft 364 kts 341°
2026-04-30 19:13 60.33662 5.42141 16842 ft 377 kts 351°
2026-04-30 19:13 60.38931 5.41119 18105 ft 383 kts 348°
2026-04-30 19:13 60.41597 5.40553 18732 ft 387 kts 349°
2026-04-30 19:14 60.44291 5.40088 19300 ft 390 kts 352°
2026-04-30 19:14 60.47019 5.40567 19907 ft 401 kts 11°
2026-04-30 19:14 60.49642 5.42585 20519 ft 405 kts 20°
2026-04-30 19:14 60.52198 5.44845 21129 ft 406 kts 20°
2026-04-30 19:15 60.54797 5.47143 21735 ft 407 kts 20°
2026-04-30 19:15 60.60003 5.51758 22984 ft 408 kts 20°
2026-04-30 19:15 60.62605 5.54063 23632 ft 408 kts 20°
2026-04-30 19:16 60.65189 5.56348 24248 ft 404 kts 21°
2026-04-30 19:16 60.67764 5.58641 24794 ft 403 kts 20°
2026-04-30 19:16 60.72890 5.63188 25808 ft 403 kts 20°
2026-04-30 19:17 60.75460 5.65502 26306 ft 404 kts 20°
2026-04-30 19:17 60.80590 5.70074 27311 ft 405 kts 20°
2026-04-30 19:17 60.83168 5.72393 27824 ft 405 kts 20°
2026-04-30 19:18 60.87480 5.76281 28543 ft 410 kts 19°
2026-04-30 19:18 60.90985 5.79434 29086 ft 413 kts 20°
2026-04-30 19:18 60.93639 5.81829 29371 ft 420 kts 19°
2026-04-30 19:19 60.96330 5.84301 29666 ft 427 kts 22°
2026-04-30 19:19 60.98807 5.87670 29998 ft 438 kts 35°
2026-04-30 19:19 61.03627 5.95615 30553 ft 449 kts 34°
2026-04-30 19:20 61.06112 5.99549 30805 ft 454 kts 34°
2026-04-30 19:20 61.08636 6.03599 30902 ft 464 kts 35°
2026-04-30 19:20 61.13791 6.12097 30948 ft 483 kts 35°
2026-04-30 19:21 61.16456 6.16413 30955 ft 489 kts 35°
2026-04-30 19:21 61.21854 6.25277 30950 ft 506 kts 36°
2026-04-30 19:22 61.27321 6.34288 30945 ft 502 kts 35°
2026-04-30 19:23 61.43744 6.61595 30931 ft 504 kts 36°
2026-04-30 19:24 61.51897 6.75286 30927 ft 504 kts 36°
2026-04-30 19:25 61.65506 6.98375 30909 ft 503 kts 36°
2026-04-30 19:26 61.76324 7.16916 30917 ft 500 kts 36°
2026-04-30 19:27 61.84430 7.30915 30911 ft 503 kts 36°
2026-04-30 19:28 61.92528 7.45006 30891 ft 501 kts 36°
2026-04-30 19:29 62.03267 7.63848 30912 ft 504 kts 36°
2026-04-30 19:30 62.14049 7.82943 30904 ft 505 kts 36°
2026-04-30 19:31 62.24837 8.02237 30887 ft 505 kts 36°
2026-04-30 19:31 62.32861 8.16695 30888 ft 505 kts 36°
2026-04-30 19:32 62.38180 8.26359 30883 ft 503 kts 37°
2026-04-30 19:32 62.43485 8.36028 30866 ft 505 kts 37°
2026-04-30 19:33 62.48827 8.45810 30872 ft 502 kts 37°
2026-04-30 19:33 62.54169 8.55642 30857 ft 505 kts 37°
2026-04-30 19:34 62.59476 8.65463 30866 ft 507 kts 36°
2026-04-30 19:35 62.66649 8.78809 30857 ft 505 kts 37°
2026-04-30 19:35 62.71968 8.88753 30859 ft 505 kts 37°
2026-04-30 19:36 62.77287 8.98772 30841 ft 501 kts 37°
2026-04-30 19:36 62.85170 9.13667 30866 ft 504 kts 37°
2026-04-30 19:37 62.90449 9.23722 30860 ft 502 kts 37°
2026-04-30 19:37 62.95735 9.33833 30861 ft 504 kts 37°
2026-04-30 19:38 63.00997 9.43949 30855 ft 503 kts 37°
2026-04-30 19:38 63.06276 9.54154 30541 ft 507 kts 38°
2026-04-30 19:39 63.08737 9.59468 30170 ft 496 kts 49°
2026-04-30 19:39 63.10544 9.65892 29789 ft 495 kts 64°
2026-04-30 19:39 63.11614 9.73126 29457 ft 498 kts 79°
2026-04-30 19:39 63.12201 9.80674 28917 ft 501 kts 81°
2026-04-30 19:40 63.12738 9.88261 28241 ft 498 kts 81°
2026-04-30 19:40 63.13251 9.95785 27580 ft 493 kts 81°
2026-04-30 19:40 63.13773 10.03229 26861 ft 489 kts 81°
2026-04-30 19:40 63.14310 10.10615 26055 ft 484 kts 81°
2026-04-30 19:41 63.14820 10.17826 25284 ft 478 kts 81°
2026-04-30 19:41 63.15363 10.25024 24494 ft 471 kts 74°
2026-04-30 19:41 63.16376 10.31656 23154 ft 466 kts 66°
2026-04-30 19:41 63.17708 10.38237 21586 ft 471 kts 63°
2026-04-30 19:42 63.19102 10.44816 20107 ft 474 kts 64°
2026-04-30 19:42 63.20359 10.51581 18697 ft 475 kts 69°
2026-04-30 19:42 63.21476 10.58476 17119 ft 475 kts 69°
2026-04-30 19:42 63.22657 10.65287 15626 ft 472 kts 67°
2026-04-30 19:43 63.23929 10.71891 14890 ft 453 kts 66°
2026-04-30 19:43 63.25082 10.78198 14410 ft 429 kts 68°
2026-04-30 19:43 63.26144 10.84124 13895 ft 408 kts 62°
2026-04-30 19:44 63.28221 10.95271 12849 ft 376 kts 70°
2026-04-30 19:44 63.29046 11.00702 12329 ft 377 kts 70°
2026-04-30 19:44 63.29896 11.06394 11824 ft 389 kts 71°
2026-04-30 19:44 63.30739 11.12078 11335 ft 385 kts 71°
2026-04-30 19:45 63.31566 11.17733 10882 ft 385 kts 72°
2026-04-30 19:45 63.32285 11.23436 10411 ft 381 kts 75°
2026-04-30 19:45 63.32926 11.29087 9895 ft 369 kts 76°
2026-04-30 19:45 63.33522 11.34442 9377 ft 354 kts 76°
2026-04-30 19:46 63.34104 11.39675 8852 ft 342 kts 75°
2026-04-30 19:46 63.35078 11.44348 8284 ft 327 kts 49°
2026-04-30 19:46 63.36675 11.47739 7758 ft 307 kts 26°
2026-04-30 19:46 63.38581 11.49457 7270 ft 289 kts
2026-04-30 19:47 63.40507 11.50511 6801 ft 281 kts
2026-04-30 19:47 63.41764 11.51032 6448 ft 273 kts 357°
2026-04-30 19:47 63.43990 11.49569 5759 ft 234 kts 319°
2026-04-30 19:47 63.45116 11.47279 5540 ft 203 kts 303°
2026-04-30 19:48 63.45593 11.44645 5338 ft 171 kts 277°
2026-04-30 19:48 63.45732 11.42254 5158 ft 144 kts 273°
2026-04-30 19:48 63.45785 11.40167 4977 ft 129 kts 270°
2026-04-30 19:48 63.45815 11.38056 4707 ft 140 kts 269°
2026-04-30 19:49 63.45784 11.35791 4314 ft 153 kts 266°
2026-04-30 19:49 63.45666 11.30820 3795 ft 162 kts 267°
2026-04-30 19:49 63.45617 11.28484 3579 ft 143 kts 268°
2026-04-30 19:50 63.45577 11.26181 3201 ft 148 kts 269°
2026-04-30 19:50 63.45592 11.23953 2987 ft 136 kts 274°
2026-04-30 19:50 63.45653 11.21869 2897 ft 136 kts 276°
2026-04-30 19:50 63.45717 11.19798 2809 ft 130 kts 274°
2026-04-30 19:51 63.45739 11.17783 2563 ft 132 kts 271°
2026-04-30 19:51 63.45729 11.15748 2302 ft 129 kts 270°
2026-04-30 19:51 63.45694 11.13709 2063 ft 134 kts 269°
2026-04-30 19:51 63.45682 11.11614 1878 ft 131 kts 271°
2026-04-30 19:52 63.45688 11.09653 1728 ft 124 kts 272°
2026-04-30 19:52 63.45707 11.07775 1528 ft 121 kts 272°
2026-04-30 19:52 63.45731 11.05907 1334 ft 117 kts 272°
2026-04-30 19:52 63.45750 11.04115 1115 ft 115 kts 270°
2026-04-30 19:53 63.45743 11.02325 928 ft 115 kts 268°
2026-04-30 19:53 63.45738 11.00581 758 ft 114 kts 269°
2026-04-30 19:53 63.45739 10.98840 595 ft 105 kts 270°
2026-04-30 19:53 63.45745 10.97209 400 ft 105 kts 270°
2026-04-30 19:54 63.45751 10.95567 248 ft 106 kts 270°
2026-04-30 19:54 63.45755 10.93955 89 ft 101 kts 271°
2026-04-30 19:54 63.45760 10.92499 39 ft 76 kts 270°
2026-04-30 19:54 63.45762 10.91720 35 ft 20 kts 270°
2026-04-30 19:55 63.45769 10.91570 32 ft 5 kts 309°
2026-04-30 19:55 63.45810 10.91550 34 ft 9 kts 359°
2026-04-30 19:55 63.45870 10.91576 35 ft 9 kts 38°
2026-04-30 19:55 63.45896 10.91706 35 ft 9 kts 82°
2026-04-30 19:56 63.45895 10.91850 35 ft 11 kts 87°
2026-04-30 19:56 63.45925 10.92004 35 ft 10 kts 41°
2026-04-30 19:56 63.45983 10.92105 37 ft 11 kts 37°
2026-04-30 19:56 63.46030 10.92149 37 ft 3 kts 339°
2026-04-30 19:57 63.46038 10.92081 37 ft 8 kts 271°
2026-04-30 19:57 63.46020 10.91968 34 ft 8 kts 226°
2026-04-30 19:57 63.45982 10.91901 35 ft 5 kts 217°
2026-04-30 19:57 63.45966 10.91874 35 ft 2 kts 217°
2026-04-30 19:58 63.45963 10.91867 35 ft 0 kts 217°